Tracking 20040 objects as of 18-Nov-2019
Live streaming from Space Station
objects crossing your sky now

TITAN 34D TRANSTAGE DEB

Track TITAN 34D TRANSTAGE DEB now!


NORAD ID: 23039
Int'l Code: 1988-077J
Perigee: 489.7 km
Apogee: 39,413.9 km
Inclination: 26.5 °
Period: 708.4 minutes
Semi major axis: 26322 km
RCS: Unknown
Launch date: September 2, 1988
Source: United States (US)
Launch site: AIR FORCE EASTERN TEST RANGE (AFETR)

Note: This is SATELLITE DEBRIS
aabbcc
Your satellite tracking list
Your tracking list is empty




NASA's NSSDC Master Catalog

Two Line Element Set (TLE):
1 23039U 88077J   19320.93331027 -.00000263  00000-0 -35682-3 0  9990
2 23039  26.5212 127.9238 7393625 138.2761 311.6598  2.03285017  2230
Source of the keplerian elements: AFSPC